Location: Hains Lake
(37.8540°N, 99.8578°W)
Time: 23:46:06
(UTC+00:00)

Vanguard 2 Rocket - Visible Passes

Search period start: 18 April 2021 00:00
Search period end: 28 April 2021 00:00
Orbit: 553 x 3326 km, 32.9° (Epoch: 18 April)

Date Brightness Start Highest point End Pass type
(mag) Time Alt. Az. Time Alt. Az. Time Alt. Az.
18 Apr 9.4 02:16:30 10° W 02:32:11 44° SW 02:40:54 14° SSE visible
18 Apr 9.9 04:40:49 10° WSW 04:44:22 12° SW 04:46:42 11° SW visible
19 Apr 9.6 03:34:43 10° W 03:44:58 22° SW 03:50:30 15° SSW visible
20 Apr 9.6 02:30:42 10° W 02:45:08 34° SW 02:54:20 11° SSE visible
21 Apr 9.8 01:27:17 10° W 01:44:42 46° SSW 01:56:11 10° SE visible
21 Apr 10.0 03:51:00 10° W 03:57:33 14° SW 04:02:55 10° SSW visible
22 Apr 9.9 02:45:26 10° W 02:57:51 25° SW 03:06:46 10° S visible
23 Apr 9.9 01:41:29 10° W 01:57:37 36° SW 02:08:53 10° SSE visible
24 Apr 10.2 03:01:26 10° W 03:10:23 17° SW 03:17:35 10° SSW visible
25 Apr 10.1 01:56:12 10° W 02:10:18 27° SW 02:20:54 10° S visible
27 Apr 10.4 02:12:04 10° W 02:22:51 18° SW 02:31:43 10° SSW visible
